Morgantown, WV

4:19 AM EDT on May 26, 2018 (GMT -0400)
Morgantown Municipal-Hart

Weather History for KMGW - July, 2014

Change the Weather History Date:

Wednesday, July 23, 2014

  Actual Average Record
Temperature  
Mean Temperature 79 °F 73 °F  
Max Temperature 88 °F 83 °F 102 °F (1892)
Min Temperature 69 °F 63 °F 50 °F (1954)
Degree Days  
Heating Degree Days 0 0  
Month to date heating degree days 0 0  
Since 1 June heating degree days 2 31  
Since 1 July heating degree days 0 0  
Cooling Degree Days 14 8  
Month to date cooling degree days 204 184  
Year to date cooling degree days 553 413  
Since 1 June cooling degree days 444 346  
Growing Degree Days 29 (Base 50)    
Moisture  
Dew Point 67 °F    
Average Humidity 71    
Maximum Humidity 90    
Minimum Humidity 51    
Precipitation  
Precipitation T in 0.15 in 1.70 in (1957)
Month to date precipitation 3.43 3.53  
Year to date precipitation 23.44 24.83  
Sea Level Pressure  
Sea Level Pressure 29.98 in    
Wind  
Wind Speed 6 mph (SW)    
Max Wind Speed 15 mph    
Max Gust Speed 20 mph    
Visibility 10 miles    
Events Thunderstorm    
T = Trace of Precipitation, MM = Missing Value Source: NWS Daily Summary

Daily Weather History Graph

Daily Weather History Graph

Search for Another Location

Airport or City:

Astronomy

Jul. 23, 2014 Rise Set
Actual Time 6:10 AM EDT 8:40 PM EDT
Civil Twilight 5:40 AM EDT 9:11 PM EDT
Nautical Twilight 5:01 AM EDT 9:50 PM EDT
Astronomical Twilight 4:18 AM EDT 10:32 PM EDT
Moon 3:28 AM EDT (7/23) 6:08 PM EDT (7/23)
Length of Visible Light 15h 31m
Length of Day
14h 29m
Waning Crescent, 10% of the Moon is Illuminated
Jul 23
Waning Crescent
Jul 26
New
Aug 3
First Quarter
Aug 10
Full
Aug 17
Last Quarter

Hourly Weather History & Observations

Time (EDT) Temp. Heat Index Dew Point Humidity Pressure Visibility Wind Dir Wind Speed Gust Speed Precip Events Conditions
12:53 AM 72.0 °F - 68.0 °F 87% 30.04 in 9.0 mi South 3.5 mph - N/A   Clear
1:53 AM 73.0 °F - 68.0 °F 84% 30.04 in 10.0 mi Calm Calm - N/A   Clear
2:53 AM 70.0 °F - 66.9 °F 90% 30.04 in 6.0 mi South 3.5 mph - N/A   Clear
3:53 AM 70.0 °F - 66.0 °F 87% 30.01 in 8.0 mi South 3.5 mph - N/A   Clear
4:53 AM 70.0 °F - 66.0 °F 87% 29.99 in 8.0 mi South 3.5 mph - N/A   Clear
5:53 AM 75.0 °F - 66.9 °F 76% 30.02 in 10.0 mi Calm Calm - N/A   Overcast
6:53 AM 72.0 °F - 66.9 °F 84% 30.03 in 10.0 mi South 3.5 mph - N/A   Mostly Cloudy
7:53 AM 75.9 °F - 66.9 °F 74% 30.03 in 10.0 mi Variable 3.5 mph - N/A   Scattered Clouds
8:04 AM 75.0 °F - 66.9 °F 76% 30.07 in 10.0 mi Variable 4.6 mph - N/A   Mostly Cloudy
8:12 AM 75.9 °F - 66.9 °F 74% 30.07 in 10.0 mi SSW 5.8 mph - N/A   Mostly Cloudy
8:53 AM 75.9 °F - 68.0 °F 76% 30.02 in 10.0 mi SSW 4.6 mph - N/A   Mostly Cloudy
9:53 AM 80.1 °F 82.9 °F 69.1 °F 69% 30.00 in 10.0 mi South 8.1 mph - N/A   Clear
10:53 AM 82.0 °F 85.5 °F 69.1 °F 65% 29.98 in 10.0 mi SW 10.4 mph - N/A   Clear
11:53 AM 84.9 °F 88.2 °F 68.0 °F 57% 29.96 in 10.0 mi SW 10.4 mph 18.4 mph N/A   Partly Cloudy
12:53 PM 86.0 °F 88.8 °F 66.9 °F 53% 29.92 in 10.0 mi South 8.1 mph - N/A   Clear
1:53 PM 87.1 °F 90.6 °F 68.0 °F 53% 29.95 in 10.0 mi West 6.9 mph - N/A   Scattered Clouds
2:53 PM 88.0 °F 91.4 °F 68.0 °F 51% 29.94 in 10.0 mi West 9.2 mph - N/A   Mostly Cloudy
3:53 PM 84.9 °F 88.2 °F 68.0 °F 57% 29.94 in 10.0 mi Variable 5.8 mph - N/A   Partly Cloudy
4:53 PM 84.9 °F 87.6 °F 66.9 °F 55% 29.92 in 10.0 mi Variable 6.9 mph - N/A   Scattered Clouds
5:02 PM 84.9 °F 87.1 °F 66.0 °F 53% 29.96 in 10.0 mi NW 3.5 mph - N/A Thunderstorm Thunderstorm
5:38 PM 79.0 °F - 69.1 °F 72% 29.96 in 10.0 mi South 6.9 mph - 0.00 in   Scattered Clouds
5:53 PM 81.0 °F 83.8 °F 68.0 °F 65% 29.92 in 10.0 mi SSW 5.8 mph - 0.00 in   Clear
6:53 PM 82.0 °F 85.5 °F 69.1 °F 65% 29.92 in 10.0 mi SW 4.6 mph - N/A   Mostly Cloudy
7:53 PM 82.9 °F 84.6 °F 64.9 °F 54% 29.91 in 10.0 mi Variable 5.8 mph - N/A   Overcast
8:53 PM 79.0 °F - 64.9 °F 62% 29.94 in 10.0 mi NW 6.9 mph - N/A   Mostly Cloudy
9:48 PM 75.2 °F - 66.2 °F 73% 29.99 in 10.0 mi North 9.2 mph - N/A   Mostly Cloudy
9:53 PM 75.0 °F - 66.9 °F 76% 29.96 in 10.0 mi North 10.4 mph - N/A   Overcast
10:00 PM 75.0 °F - 66.9 °F 76% 29.99 in 10.0 mi North 11.5 mph 16.1 mph N/A   Overcast
10:11 PM 73.9 °F - 66.0 °F 76% 30.00 in 10.0 mi North 9.2 mph - N/A   Overcast
10:53 PM 72.0 °F - 63.0 °F 73% 29.97 in 10.0 mi North 6.9 mph - N/A   Overcast
11:53 PM 71.1 °F - 62.1 °F 73% 29.97 in 10.0 mi North 8.1 mph - N/A   Overcast